FENGYUN 1C DEB

Satellite information

Favourite Embed

Satellite Type and Status

DEBRISIN ORBIT

Key statistics

Satellite FENGYUN 1C DEB at a glance.

Uptime

9495

Days in orbit

Revolutions

≈ 14.1

Per day

Orbit

SSO

Sun Synchronous Orbit

Inclination

98.7

Latest

Satellite identification and parameters

Extended collection of information and parameters for FENGYUN 1C DEB.

Object identification

Identified? True

Debris? True

Object name: FENGYUN 1C DEB

International designator: 1999-025CQF

Object number (NORAD): 32089

Object ID (CCSDS): 32089

Country: PEOPLES REPUBLIC OF CHINA (PRC)

Current information (Y/N): Y

RCS size: SMALL

Orbital parameters

Period: 101.879 minutes

Inclination: 98.6577 deg

SMA: 7225.734 km

Apoapsis: 929.696 km

Periapsis: 765.501 km

RAAN: 134.9273 deg

Eccentricy: 0.0113618

Argument of periapsis: 46.1326 deg

Mean anomaly: 314.9165 deg

Mean motion: 14.13447957 rev/day

Mean motion (dot): 0.00002358 rev/day2

B* drag term: 0.0012 1/REarth

Two-line elements (TLE)

Creation date: May 6, 2025, 10:46 p.m.

Reference frame: TEME

Reference center: EARTH

Epoch: May 2, 2025, 6:49 a.m. UTC

TLE line 0: 0 FENGYUN 1C DEB

TLE line 1: 1 32089U 99025CQF 25122.28466120 .00002358 00000-0 12000-2 0 9991

TLE line 2: 2 32089 98.6577 134.9273 0113618 46.1326 314.9165 14.13447957914410

Live tracking on map

Real-time ground track for satellite FENGYUN 1C DEB.

In-orbit conjunctions

A list of the most updated potential collisions computed for object FENGYUN 1C DEB.

Target Orbit TCA Probability of collision Miss distance Type
GGSE 4 LEO 2025-04-04 05:58:38 0.0002683161 303.0 (m) PAYLOAD

Associated space launch

Chinese polar orbiting meteorological satellite

FENGYUN 1C DEB was lifted into orbit during the mission ‘Long March 4B | Feng Yun 1C’, on board a Long March 4B space rocket.

The launch took place on May 10, 1999, 1:33 a.m. from Launch Complex 7.

For more information about the launch, click the button.

Launch to space Long March 4B | Feng Yun 1C
Long March 4B | Feng Yun 1C

Agency: N/A

Status: Launch Successful

Launch date: May 10, 1999, 1:33 a.m. UTC

Rocket: Long March 4B

Launch pad: Launch Complex 7

Location: Taiyuan Satellite Launch Center, People's Republic of China

...

Latest news about this satellite

There are no fresh news available about this satellite. Check back as we update our databases every day.


Newsletter sign-up

Weekly statistics, charts and insights to help you stay on top of the space industry.